User: anonymous   Login
Location: Unspecified
(0.0000°N, 0.0000°E)
Time: 18:42:21
(UTC+00:00)
Language:

DSAT - Orbit

View from above orbital plane
View from above orbital plane
View from above satellite
View from above satellite

Ground track
Ground track

The orbit data is extracted from the following two-line orbital elements,

1 42794U 17036AF  19077.60199098 +.00000364 +00000-0 +36743-4 0  9999
2 42794 097.5527 126.2939 0128298 088.6376 272.9536 14.91039780094619
Epoch (UTC): 18 March 2019 14:26:52
Eccentricity: 0.0128298
inclination: 97.5527°
perigee height: 505 km
apogee height: 684 km
right ascension of ascending node: 126.2939°
argument of perigee: 88.6376°
revolutions per day: 14.91039780
mean anomaly at epoch: 272.9536°
orbit number at epoch: 9461

The dashed part of the orbit path shows where the satellite is in the earth's shadow,  

DLR